User: anonymous   Login
Location: Bothwell
(42.3833°S, 147.0000°E)
Time: 01:35:06
(UTC+10:00)
Language:

NUDT-PHONESAT - Orbit

View from above orbital plane
View from above orbital plane
View from above satellite
View from above satellite

Ground track
Ground track

The orbit data is extracted from the following two-line orbital elements,

1 40900U 15049B   22268.11477042  .00029784  00000-0  72942-3 0  9995
2 40900  97.3972 286.9212 0005994 293.1013 138.4125 15.40695247389937
Epoch (UTC): 25 September 2022 02:45:16
Eccentricity: 0.0005994
inclination: 97.3972°
perigee height: 440 km
apogee height: 448 km
right ascension of ascending node: 286.9212°
argument of perigee: 293.1013°
revolutions per day: 15.40695247
mean anomaly at epoch: 138.4125°
orbit number at epoch: 38993

The dashed part of the orbit path shows where the satellite is in the earth's shadow,  

DLR